STARLINK-32869, 62859

Orbit data source: Space-Track

STARLINK-32869, 62859 is a payload satellite owned by SpaceX/Seattle (US) in LEO that was launched on Sat, 01 Feb 2025 UTC via an FALCON 9 launch vehicle from the Air Force Western Test Range (AFWTR). Payload-class satellites include a variety of spacecraft equipped with specific instruments for various scientific and technological missions. These include communications satellites like Starlink; space stations such as the ISS; scientific satellites like the Hubble; Earth observation satellites from companies like Planet Labs, Umbra, and HawkEye 360; GPS; miniature CubeSats for education and research; and military/defense satellites.

Loading next visibility...
Identifier
62859, 2025-022F
Orbit
LEO
Last TLE update
10 hours ago
Origin
Manufacturer
SpaceX/Seattle
Mission
Operational Commercial Communications
Bus & Motor
STARLINK V2M, Unknown motor
Mass
730 kg wet, ~700 kg dry
Launch date (UTC)
2025-02-01 (5 months ago)
Launch vehicle
FALCON 9
Launch site
Air Force Western Test Range (AFWTR)
Object type
Payload
Rocket body
Debris
Shape & HBR
Box + 2 Pan, 29 m
Radar Cross Section
33.884 m², Large (>1 m²)

Expand to show TLE details & history

TLE from 10 hours ago
0 STARLINK-32869
1 62859U 25022F   25191.58335648 -.00028964  00000-0 -96934-3 0  9996
2 62859  53.1576 174.0287 0001248  85.4023 304.2571 15.30207090 25753
Epoch: 2025-07-10T14:00Z
TLE epoch observation values (Epoch: 2025-07-10T14:00:01.999Z)
Latitude
23.38122°
Longitude
54.06559°
Altitude
475.505 km
Speed
7.632 km/s
True Right ascension
12h 51m 17s
True Declination
23° 15' 04"
Sunlit
Object was in daylight at epoch
Visualization orbit readout
Latitude
-53.25923°
Longitude
-60.21564°
Altitude
494.65 km
Speed
7.617 km/s
Apparent Right ascension
02h 45m 11s
Apparent Declination
-51° 53' 03"
Sunlit
Object is in daylight
Visualization observer readout
Local Sidereal Time
12:42:49
Azimuth
230.117° WSW
Elevation
-65.835°
Doppler factor
1
Orbital elements
Apogee altitude
476.306 km
Perigee altitude
474.595 km
Semi-major axis
6,853.588 km
Eccentricity
0.00012
Inclination
53.1576°
RAAN
174.0287°
Arg. of periapsis
85.4023°
True anomaly
Unknown
Mean anomaly
304.2571°
Eccentric anomaly
Unknown
Mean motion
3.82531 °/min
Orbital period
94.11 mins
BSTAR
-0.00096934
Loading maneuver chart data...
Loading SW <> Apogee altitude chart data...
Loading historical data...
Loading historical data...
Loading historical data...
Loading historical data...
Loading historical data...
Loading historical data...
Loading historical data...

STARLINK-32869 Visibility forecast

Observer location: undefined°, undefined°

Span
Click to sort rows by Start time (UTC) header in descending order
Start Az.
Max El. time (UTC)
Max El. Az.
Max El.
End time (UTC)
End Az.
5 mins2025-07-11 01:00:35.874Z190.795° SSW2025-07-11 01:02:35.874Z148.242° SSE28.368°2025-07-11 01:05:35.874Z72.814° E
4 mins2025-07-11 02:39:35.874Z290.236° WNW2025-07-11 02:40:35.874Z318.113° NNW26.967°2025-07-11 02:43:35.874Z28.521° NE
5 mins2025-07-11 07:35:35.874Z335.013° NNW2025-07-11 07:37:35.874Z21.612° NNE28.368°2025-07-11 07:40:35.874Z92.669° ESE
5 mins2025-07-11 09:13:35.874Z280.291° WNW2025-07-11 09:15:35.874Z232.576° WSW27.179°2025-07-11 09:18:35.874Z167.883° S
|